Back to catalog

STARLINK-11748

AliveCommunicationsVLEO
NORAD 64373·PAYLOAD·🇺🇸 United States

Launched Jun 13, 2025 from Cape Canaveral Space Force Station

Loading…

Next Passes (next 24 hours)

TLE

FreshSource: CelesTrak SupGP

Epoch: Sep 14, 2026, 14:30 UTC

1 64373C 25127D   26257.60465278 -.00014566  00000+0 -11322-3 0  2572
2 64373  43.0008  26.2661 0001592 264.4296 282.6199 15.70828924    17

Track STARLINK-11748 in real time with AllMySat

Download on the App Store